Flag Island, MN

6:12 AM CDT on May 25, 2017 (GMT -0500)
Flag Island

Weather History for KFGN - March, 2013

Change the Weather History Date:

Monday, March 4, 2013

  Actual Average Record
Temperature  
Mean Temperature 22 °F -  
Max Temperature 28 °F 18 °F 35 °F (2005)
Min Temperature 17 °F 1 °F -16 °F (2003)
Degree Days  
Heating Degree Days 42    
Moisture  
Dew Point 10 °F    
Average Humidity 60    
Maximum Humidity 93    
Minimum Humidity 31    
Precipitation  
Precipitation 0.00 in - - ()
Sea Level Pressure  
Sea Level Pressure 30.04 in    
Wind  
Wind Speed 10 mph (East)    
Max Wind Speed 15 mph    
Max Gust Speed 22 mph    
Visibility 7 miles    
Events Snow    
Averages and records for this station are not official NWS values.
T = Trace of Precipitation, MM = Missing Value Source: NWS Daily Summary

Daily Weather History Graph

Daily Weather History Graph

Search for Another Location

Airport or City:

Trip Planner

Search our weather history database for the weather conditions in past years. The results will help you decide how hot, cold, wet, or windy it might be!

Date:

Astronomy

Mar. 04, 2013 Rise Set
Actual Time 6:55 AM CST 6:07 PM CST
Civil Twilight 6:23 AM CST 6:39 PM CST
Nautical Twilight 5:46 AM CST 7:16 PM CST
Astronomical Twilight 5:09 AM CST 7:53 PM CST
Moon 1:28 AM CST (3/4) 10:26 AM CST (3/4)
Length of Visible Light 12h 16m
Length of Day
11h 12m
Waning Gibbous, 52% of the Moon is Illuminated
Mar 4
Waning Gibbous
Mar 4
Last Quarter
Mar 11
New
Mar 19
First Quarter
Mar 27
Full

Hourly Weather History & Observations

Time (CST) Temp. Windchill Dew Point Humidity Pressure Visibility Wind Dir Wind Speed Gust Speed Precip Events Conditions
12:13 AM 26.6 °F 18.2 °F 3.2 °F 37% 29.99 in 10.0 mi East 8.1 mph - N/A   Overcast
12:33 AM 24.8 °F 15.3 °F 3.2 °F 40% 29.99 in 10.0 mi East 9.2 mph - N/A   Overcast
12:54 AM 24.8 °F 16.1 °F 3.2 °F 40% 29.98 in 10.0 mi East 8.1 mph - N/A   Overcast
1:13 AM 24.8 °F 15.3 °F 5.0 °F 43% 29.98 in 10.0 mi ESE 9.2 mph 16.1 mph N/A   Overcast
2:14 AM 24.8 °F 14.0 °F 5.0 °F 43% 29.98 in 10.0 mi ESE 11.5 mph 16.1 mph N/A   Overcast
2:33 AM 24.8 °F 14.6 °F 5.0 °F 43% 29.98 in 10.0 mi ESE 10.4 mph 16.1 mph N/A   Overcast
2:54 AM 24.8 °F 14.0 °F 6.8 °F 46% 29.98 in 10.0 mi ESE 11.5 mph 16.1 mph N/A   Overcast
3:13 AM 23.0 °F 13.9 °F 6.8 °F 50% 29.98 in 10.0 mi East 8.1 mph - N/A   Overcast
3:33 AM 23.0 °F 13.1 °F 6.8 °F 50% 29.98 in 10.0 mi ESE 9.2 mph - N/A   Overcast
3:53 AM 21.2 °F 10.1 °F 5.0 °F 50% 29.99 in 10.0 mi ESE 10.4 mph 16.1 mph N/A   Overcast
4:13 AM 21.2 °F 9.5 °F 5.0 °F 50% 29.99 in 10.0 mi ESE 11.5 mph 17.3 mph N/A   Overcast
4:34 AM 21.2 °F 11.7 °F 3.2 °F 46% 30.00 in 10.0 mi East 8.1 mph - N/A   Overcast
5:13 AM 21.2 °F 10.9 °F -0.4 °F 39% 30.00 in 10.0 mi East 9.2 mph - N/A   Overcast
5:34 AM 19.4 °F 7.2 °F 1.4 °F 46% 30.01 in 10.0 mi East 11.5 mph 17.3 mph N/A   Overcast
5:53 AM 19.4 °F 7.2 °F -0.4 °F 42% 30.01 in 10.0 mi ESE 11.5 mph 19.6 mph N/A   Overcast
6:13 AM 19.4 °F 6.6 °F -0.4 °F 42% 30.01 in 10.0 mi East 12.7 mph 21.9 mph N/A   Overcast
6:34 AM 19.4 °F 7.9 °F 1.4 °F 46% 30.01 in 10.0 mi East 10.4 mph 16.1 mph N/A   Overcast
6:53 AM 17.6 °F 5.7 °F 1.4 °F 49% 30.02 in 10.0 mi East 10.4 mph - N/A   Overcast
7:13 AM 17.6 °F 5.7 °F 3.2 °F 53% 30.02 in 10.0 mi ESE 10.4 mph 18.4 mph N/A   Overcast
7:53 AM 17.6 °F 6.4 °F 5.0 °F 58% 30.03 in 10.0 mi East 9.2 mph 16.1 mph N/A   Overcast
8:13 AM 17.6 °F 7.3 °F 6.8 °F 63% 30.03 in 10.0 mi East 8.1 mph 17.3 mph N/A   Overcast
8:34 AM 19.4 °F 9.5 °F 6.8 °F 58% 30.04 in 10.0 mi ESE 8.1 mph 16.1 mph N/A   Overcast
8:53 AM 19.4 °F 8.6 °F 6.8 °F 58% 30.03 in 10.0 mi East 9.2 mph - N/A   Mostly Cloudy
9:13 AM 19.4 °F 6.6 °F 6.8 °F 58% 30.02 in 10.0 mi East 12.7 mph 17.3 mph N/A   Mostly Cloudy
9:34 AM 21.2 °F 8.3 °F 6.8 °F 54% 30.01 in 10.0 mi East 13.8 mph 19.6 mph N/A   Mostly Cloudy
9:53 AM 21.2 °F 10.1 °F 8.6 °F 58% 30.02 in 10.0 mi East 10.4 mph 18.4 mph N/A   Mostly Cloudy
10:13 AM 23.0 °F 13.1 °F 8.6 °F 54% 30.02 in 10.0 mi East 9.2 mph 16.1 mph N/A   Overcast
10:34 AM 23.0 °F 13.1 °F 8.6 °F 54% 30.02 in 10.0 mi SE 9.2 mph - N/A   Mostly Cloudy
10:53 AM 23.0 °F 12.4 °F 10.4 °F 59% 30.02 in 10.0 mi ESE 10.4 mph - N/A   Mostly Cloudy
11:13 AM 24.8 °F 15.3 °F 8.6 °F 50% 30.02 in 10.0 mi ESE 9.2 mph - N/A   Scattered Clouds
11:34 AM 24.8 °F 14.6 °F 8.6 °F 50% 30.01 in 10.0 mi East 10.4 mph 17.3 mph N/A   Mostly Cloudy
11:53 AM 26.6 °F 16.8 °F 8.6 °F 47% 30.01 in 10.0 mi East 10.4 mph - N/A   Scattered Clouds
12:13 PM 26.6 °F 15.7 °F 6.8 °F 43% 30.01 in 10.0 mi East 12.7 mph 19.6 mph N/A   Scattered Clouds
12:34 PM 28.4 °F 19.1 °F 8.6 °F 43% 30.01 in 10.0 mi East 10.4 mph - N/A   Scattered Clouds
12:53 PM 28.4 °F 19.1 °F 6.8 °F 40% 30.00 in 10.0 mi East 10.4 mph - N/A   Scattered Clouds
1:13 PM 28.4 °F 18.5 °F 3.2 °F 34% 30.00 in 10.0 mi East 11.5 mph 18.4 mph N/A   Mostly Cloudy
1:34 PM 28.4 °F 19.1 °F 3.2 °F 34% 30.01 in 10.0 mi East 10.4 mph 21.9 mph N/A   Scattered Clouds
1:53 PM 28.4 °F 18.0 °F 1.4 °F 31% 30.01 in 10.0 mi East 12.7 mph 18.4 mph N/A   Scattered Clouds
2:13 PM 28.4 °F 18.5 °F 1.4 °F 31% 30.02 in 10.0 mi East 11.5 mph 16.1 mph N/A   Mostly Cloudy
2:34 PM 28.4 °F 19.7 °F 1.4 °F 31% 30.02 in 10.0 mi ESE 9.2 mph 16.1 mph N/A   Overcast
2:53 PM 26.6 °F 14.7 °F 6.8 °F 43% 30.03 in 7.0 mi ESE 15.0 mph 20.7 mph N/A   Overcast
3:13 PM 26.6 °F 16.8 °F 10.4 °F 51% 30.03 in 7.0 mi ESE 10.4 mph 19.6 mph N/A   Overcast
3:33 PM 26.6 °F 16.8 °F 12.2 °F 55% 30.04 in 5.0 mi ESE 10.4 mph 16.1 mph N/A Snow Light Snow
3:53 PM 24.8 °F 15.3 °F 12.2 °F 59% 30.04 in 4.0 mi East 9.2 mph - N/A Snow Light Snow
4:14 PM 26.6 °F 18.2 °F 14.0 °F 59% 30.05 in 10.0 mi ESE 8.1 mph - N/A Snow Light Snow
4:33 PM 26.6 °F 19.1 °F 15.8 °F 64% 30.05 in 7.0 mi East 6.9 mph 16.1 mph N/A Snow Light Snow
4:53 PM 24.8 °F 14.0 °F 17.6 °F 74% 30.06 in 2.5 mi East 11.5 mph - N/A Snow Light Snow
5:14 PM 24.8 °F 16.1 °F 17.6 °F 74% 30.07 in 2.0 mi East 8.1 mph - N/A Snow Light Snow
5:33 PM 24.8 °F 15.3 °F 17.6 °F 74% 30.07 in 1.8 mi East 9.2 mph 18.4 mph N/A Snow Light Snow
5:53 PM 24.8 °F 13.4 °F 15.8 °F 69% 30.07 in 2.0 mi East 12.7 mph 20.7 mph N/A Snow Light Snow
6:14 PM 23.0 °F 12.4 °F 17.6 °F 80% 30.08 in 0.8 mi East 10.4 mph 17.3 mph N/A Snow Light Snow
6:33 PM 23.0 °F 12.4 °F 17.6 °F 80% 30.08 in 2.5 mi East 10.4 mph 16.1 mph N/A Snow Light Snow
6:53 PM 23.0 °F 12.4 °F 19.4 °F 86% 30.08 in 4.0 mi East 10.4 mph - N/A Snow Light Snow
7:14 PM 23.0 °F 13.9 °F 19.4 °F 86% 30.09 in 2.0 mi East 8.1 mph - N/A Snow Light Snow
7:33 PM 23.0 °F 14.7 °F 19.4 °F 86% 30.09 in 1.8 mi East 6.9 mph - N/A Snow Light Snow
7:53 PM 23.0 °F 17.0 °F 19.4 °F 86% 30.10 in 3.0 mi East 4.6 mph - N/A Snow Light Snow
8:14 PM 23.0 °F 14.7 °F 19.4 °F 86% 30.10 in 4.0 mi ENE 6.9 mph - N/A Snow Light Snow
8:33 PM 23.0 °F 13.1 °F 19.4 °F 86% 30.11 in 1.8 mi East 9.2 mph - N/A Snow Light Snow
8:53 PM 23.0 °F 13.1 °F 19.4 °F 86% 30.11 in 1.0 mi ENE 9.2 mph - N/A Snow Snow
9:14 PM 21.2 °F 12.6 °F 19.4 °F 93% 30.12 in 1.0 mi ENE 6.9 mph - N/A Snow Snow
9:33 PM 21.2 °F 11.7 °F 19.4 °F 93% 30.12 in 0.8 mi ENE 8.1 mph - N/A Snow Snow
9:53 PM 21.2 °F 12.6 °F 19.4 °F 93% 30.13 in 1.0 mi NE 6.9 mph - N/A Snow Snow
10:14 PM 21.2 °F 10.9 °F 19.4 °F 93% 30.14 in 1.0 mi East 9.2 mph - N/A Snow Snow
10:53 PM 21.2 °F 10.9 °F 19.4 °F 93% 30.14 in 1.2 mi ENE 9.2 mph - N/A Snow Light Snow
11:14 PM 21.2 °F 10.9 °F 19.4 °F 93% 30.14 in 1.2 mi ENE 9.2 mph - N/A Snow Light Snow
11:33 PM 21.2 °F 11.7 °F 19.4 °F 93% 30.15 in 1.2 mi ENE 8.1 mph - N/A Snow Light Snow
11:53 PM 21.2 °F 9.5 °F 19.4 °F 93% 30.15 in 1.2 mi NE 11.5 mph - N/A Snow Light Snow